15min,AgWx,beryljct,423,02FEB2020:00:00:00,25.1,12.84,23.5,23.4,23.8,25.1,23.2,84,86,81,0.362,19.8,20.2,19.4,2.411,3.1,314,3.3,3.8,-0.00007,-0.00008,34.0,34.8,20,0,.,.,8.57,0.00,0.00
15min,AgWx,beryljct,423,02FEB2020:00:15:00,24.7,12.83,22.1,22.4,22.7,23.4,22.2,86,86,84,0.354,19.0,19.4,18.6,2.28,1.9,351,30,3.3,-0.00011,-0.00013,33.9,34.8,20,0,.,.,8.57,0.00,0.00
15min,AgWx,beryljct,423,02FEB2020:00:30:00,24.1,12.81,21.6,21.5,21.0,22.4,19.9,87,90,85,0.355,17.7,19.0,16.7,0.022,2.2,30,15,3.5,-0.00009,-0.00011,33.9,34.8,19,0,.,.,8.58,0.00,0.00
15min,AgWx,beryljct,423,02FEB2020:00:45:00,23.4,12.81,21.2,20.5,20.9,21.5,20.5,89,90,88,0.337,18.0,19.0,17.6,3.595,1.7,187,6.7,3.9,-0.00011,-0.00014,33.8,34.7,20,0,.,.,8.58,0.00,0.00
15min,AgWx,beryljct,423,02FEB2020:01:00:00,22.8,12.79,20.6,20.3,20.1,20.6,19.6,89,90,89,0.335,17.5,18.0,17.0,4.823,3.5,176,8.0,5.2,-0.00007,-0.00008,33.8,34.8,20,0,.,.,8.58,0.00,0.00
15min,AgWx,beryljct,423,02FEB2020:01:15:00,22.3,12.79,21.1,20.5,19.9,20.5,19.2,89,90,88,0.336,17.1,17.8,16.4,5.59,5.0,174,4.8,6.4,-0.00005,-0.00005,33.7,34.8,20,0,.,.,8.58,0.00,0.00
15min,AgWx,beryljct,423,02FEB2020:01:30:00,22.2,12.78,22.3,22.0,21.1,22.0,20.3,88,89,87,0.351,18.1,18.9,17.3,7.585,7.0,180,3.2,8.3,-0.00002,-0.00002,33.7,34.8,20,0,.,.,8.58,0.00,0.00
15min,AgWx,beryljct,423,02FEB2020:01:45:00,22.7,12.77,25.3,25.1,24.0,25.2,22.0,85,87,82,0.379,20.1,20.7,18.7,7.234,7.2,180,3.8,8.6,-0.00001,-0.00001,33.7,34.7,20,0,.,.,8.58,0.00,0.00
15min,AgWx,beryljct,423,02FEB2020:02:00:00,23.5,12.76,27.7,26.9,25.4,26.9,24.9,82,83,80,0.398,20.8,21.8,20.3,6.467,6.6,182,3.4,8.2,-0.00001,-0.00000,33.6,34.8,20,0,.,.,8.57,0.00,0.00
15min,AgWx,beryljct,423,02FEB2020:02:15:00,24.3,12.76,29.6,29.4,27.6,29.5,26.5,77,80,72,0.397,21.3,22.0,20.7,5.042,4.8,174,6.1,6.6,-0.00002,-0.00001,33.6,34.7,20,0,.,.,8.58,0.00,0.00
15min,AgWx,beryljct,423,02FEB2020:02:30:00,25.2,12.76,30.6,30.1,30.0,30.7,29.4,70,72,68,0.386,21.4,21.8,20.9,6.862,6.0,174,6.2,7.6,0.00003,0.00005,33.6,34.7,20,0,.,.,8.58,0.00,0.00
15min,AgWx,beryljct,423,02FEB2020:02:45:00,26.1,12.74,31.3,31.8,30.4,32.2,29.4,68,70,65,0.397,21.2,22.2,20.6,5.634,6.4,178,4.0,7.5,0.00005,0.00007,33.6,34.7,19,0,.,.,8.58,0.00,0.00
15min,AgWx,beryljct,423,02FEB2020:03:00:00,26.8,12.74,30.0,29.1,29.7,31.7,28.0,70,75,65,0.388,21.1,22.2,20.2,5.546,5.0,198,12,6.4,0.00001,0.00003,33.5,34.7,20,0,.,.,8.57,0.00,0.00
15min,AgWx,beryljct,423,02FEB2020:03:15:00,26.9,12.73,31.4,30.7,30.1,32.8,28.9,69,72,63,0.383,21.2,22.9,20.2,3.529,4.8,208,5.3,5.7,0.00001,0.00003,33.5,34.7,20,0,.,.,8.58,0.00,0.00
15min,AgWx,beryljct,423,02FEB2020:03:30:00,26.7,12.72,26.9,27.5,29.2,31.3,27.5,69,72,65,0.356,20.4,21.3,19.0,0.46,0.9,232,9.7,3.8,-0.00016,-0.00022,33.4,34.7,19,0,.,.,8.58,0.00,0.00
15min,AgWx,beryljct,423,02FEB2020:03:45:00,25.9,12.72,21.4,21.3,23.3,27.4,21.3,79,83,70,0.327,17.6,19.1,16.8,6.226,4.4,340,16,6.2,-0.00003,-0.00002,33.4,34.7,19,0,.,.,8.58,0.00,0.00
15min,AgWx,beryljct,423,02FEB2020:04:00:00,24.7,12.72,21.8,21.8,21.7,22.1,21.2,83,84,83,0.332,17.5,17.9,16.8,6.993,6.2,357,10,7.2,-0.00002,-0.00001,33.4,34.7,20,0,.,.,8.58,0.00,0.00
15min,AgWx,beryljct,423,02FEB2020:04:15:00,23.7,12.7,18.5,18.5,20.2,21.8,18.5,85,87,83,0.301,16.4,17.4,15.1,3.113,4.1,358,17,7.4,-0.00005,-0.00005,33.4,34.7,20,0,.,.,8.58,0.00,0.00
15min,AgWx,beryljct,423,02FEB2020:04:30:00,22.3,12.7,18.9,18.4,18.1,18.5,17.8,89,90,86,0.311,15.3,15.9,15.0,0.811,2.0,331,1.9,4.2,-0.00009,-0.00011,33.3,34.7,20,0,.,.,8.58,0.00,0.00
15min,AgWx,beryljct,423,02FEB2020:04:45:00,21.1,12.7,19.3,18.9,18.6,19.1,18.2,89,90,88,0.317,16.0,16.5,15.4,0.329,1.3,330,0.6,2.3,-0.00012,-0.00015,33.3,34.7,19,0,.,.,8.58,0.00,0.00
15min,AgWx,beryljct,423,02FEB2020:05:00:00,20.2,12.68,19.5,19.2,18.2,19.2,17.4,89,90,88,0.322,15.5,16.7,14.5,0,0.1,329,0.0,0.9,-0.00017,-0.00026,33.3,34.7,20,0,.,.,8.58,0.00,0.00
15min,AgWx,beryljct,423,02FEB2020:05:15:00,19.4,12.68,17.2,16.1,18.0,19.2,16.1,88,90,88,0.277,15.1,16.6,13.2,2.499,1.3,169,46,3.6,-0.00012,-0.00015,33.2,34.6,19,0,.,.,8.58,0.00,0.00
15min,AgWx,beryljct,423,02FEB2020:05:30:00,18.8,12.67,15.6,15.4,16.4,17.2,15.4,90,91,89,0.271,13.9,14.9,12.7,1.381,2.6,180,5.8,4.8,-0.00008,-0.00009,33.2,34.6,19,0,.,.,8.58,0.00,0.00
15min,AgWx,beryljct,423,02FEB2020:05:45:00,18.1,12.67,18.0,16.8,15.8,16.8,15.3,90,91,89,0.294,13.4,14.6,12.6,1.951,2.3,184,6.0,3.3,-0.00008,-0.00010,33.2,34.6,20,0,.,.,8.58,0.00,0.00
15min,AgWx,beryljct,423,02FEB2020:06:00:00,17.8,12.67,17.6,16.8,16.5,17.1,15.9,90,92,89,0.294,14.1,14.8,13.2,4.077,3.6,193,13,5.6,-0.00006,-0.00007,33.2,34.6,20,0,.,.,8.58,0.00,0.00
15min,AgWx,beryljct,423,02FEB2020:06:15:00,17.7,12.66,18.8,18.5,18.4,19.3,16.8,89,92,87,0.304,15.7,17.0,14.7,0,2.1,192,6.3,4.7,-0.00009,-0.00011,33.2,34.6,19,0,.,.,8.58,0.00,0.00
15min,AgWx,beryljct,423,02FEB2020:06:30:00,17.8,12.66,17.9,18.4,19.0,19.7,18.3,87,88,85,0.294,15.8,16.5,14.6,1.03,0.7,174,4.4,2.4,-0.00014,-0.00020,33.1,34.6,19,0,.,.,8.58,0.00,0.00
15min,AgWx,beryljct,423,02FEB2020:06:45:00,17.9,12.64,16.5,16.6,18.2,19.3,16.6,85,87,83,0.271,14.6,15.9,12.7,1.754,2.3,148,14,3.6,-0.00008,-0.00010,33.1,34.6,19,0,.,.,8.58,0.00,0.00
15min,AgWx,beryljct,423,02FEB2020:07:00:00,17.9,12.64,17.3,16.7,16.9,18.0,16.4,87,89,85,0.279,13.8,15.2,12.7,0.482,1.8,172,7.0,3.9,0.00003,0.00005,33.1,34.6,19,0,.,.,8.58,0.00,0.00
15min,AgWx,beryljct,423,02FEB2020:07:15:00,17.8,12.64,22.2,21.4,19.3,21.4,16.7,86,90,83,0.334,15.8,17.5,13.5,4.319,2.3,174,4.4,4.5,0.00004,0.00007,33.1,34.6,19,0,.,.,8.58,0.00,0.00
15min,AgWx,beryljct,423,02FEB2020:07:30:00,18.0,12.62,21.3,20.3,20.7,22.9,19.3,82,85,77,0.314,15.9,18.3,13.8,1.206,1.8,245,58,4.5,0.00005,0.00008,33.1,34.6,19,1,.,.,8.58,0.00,0.00
15min,AgWx,beryljct,423,02FEB2020:07:45:00,18.1,12.65,28.4,25.0,19.4,25.0,17.0,83,87,80,0.367,14.9,19.7,12.6,5.722,2.9,203,69,5.9,0.00008,0.00012,33.0,34.5,20,6,.,.,8.58,0.00,0.00
15min,AgWx,beryljct,423,02FEB2020:08:00:00,19.5,12.97,19.7,20.4,26.1,28.1,20.4,69,79,65,0.288,17.4,19.9,13.3,7.76,5.4,208,57,7.8,0.00033,0.00049,33.0,34.5,20,42,.,.,8.58,0.00,0.00
15min,AgWx,beryljct,423,02FEB2020:08:15:00,21.2,13.48,32.1,30.8,24.6,30.8,20.2,77,81,65,0.380,18.4,21.7,14.2,2.411,3.2,301,20,7.6,0.00031,0.00040,33.0,34.5,19,80,.,.,8.58,0.00,0.00
15min,AgWx,beryljct,423,02FEB2020:08:30:00,24.6,14.86,37.7,37.0,33.7,37.0,30.7,62,66,55,0.410,21.9,23.0,20.2,5.765,3.2,216,29,5.8,0.00057,0.00074,33.0,34.5,20,120,.,.,8.58,0.00,0.00
15min,AgWx,beryljct,423,02FEB2020:08:45:00,28.9,14.82,31.3,29.7,35.7,38.6,29.2,58,74,51,0.412,22.3,23.6,21.3,0.504,4.8,234,65,7.1,0.00082,0.00111,33.0,34.5,20,162,.,.,8.57,0.00,0.00
15min,AgWx,beryljct,423,02FEB2020:09:00:00,31.5,14.8,32.7,31.9,31.1,31.9,29.9,74,76,72,0.448,23.6,24.7,22.4,3.113,2.0,315,16,3.3,0.00072,0.00082,33.0,34.5,20,204,.,.,8.57,0.00,0.00
15min,AgWx,beryljct,423,02FEB2020:09:15:00,33.8,14.79,34.9,34.1,32.7,34.1,31.8,72,74,69,0.473,24.6,25.7,24.2,0.745,2.2,13,19,3.1,0.00090,0.00103,33.0,34.5,20,250,.,.,8.57,0.00,0.00
15min,AgWx,beryljct,423,02FEB2020:09:30:00,36.2,14.69,36.4,36.1,35.1,36.1,34.2,69,72,65,0.498,25.9,27.4,24.8,2.455,2.3,19,9.2,3.8,0.00113,0.00128,32.9,34.5,20,297,.,.,8.57,0.00,0.00
15min,AgWx,beryljct,423,02FEB2020:09:45:00,38.7,14.69,38.4,38.5,37.5,38.5,36.0,65,69,63,0.499,26.8,27.9,26.1,2.039,2.2,15,12,3.5,0.00136,0.00154,32.9,34.5,20,340,.,.,8.57,0.00,0.00
15min,AgWx,beryljct,423,02FEB2020:10:00:00,41.7,14.64,42.4,41.6,40.0,41.6,38.4,58,63,54,0.484,26.5,27.4,25.6,0.132,1.3,13,8.1,2.8,0.00160,0.00178,32.9,34.5,20,379,.,.,8.57,0.00,0.00
15min,AgWx,beryljct,423,02FEB2020:10:15:00,44.9,14.61,44.8,44.7,43.0,44.7,41.6,53,55,49,0.496,26.9,28.4,25.8,1.798,1.1,21,26,2.7,0.00177,0.00196,32.9,34.5,20,395,.,.,8.57,0.00,0.00
15min,AgWx,beryljct,423,02FEB2020:10:30:00,47.9,14.09,55.0,53.7,47.9,53.7,44.7,43,51,31,0.432,26.1,28.8,23.3,10.37,4.3,129,52,12.0,0.00235,0.00285,32.9,34.5,20,458,.,.,8.57,0.00,0.00
15min,AgWx,beryljct,423,02FEB2020:10:45:00,51.3,14.03,55.6,55.4,55.0,55.5,53.8,26,30,24,0.393,20.6,23.2,18.9,13.96,13.0,177,11,19.4,0.00353,0.00502,32.8,34.5,20,489,.,.,8.56,0.00,0.00
15min,AgWx,beryljct,423,02FEB2020:11:00:00,53.6,13.97,56.9,56.3,55.8,56.4,55.3,25,26,24,0.385,20.1,21.3,18.9,11.97,12.2,177,12,16.9,0.00367,0.00516,32.8,34.5,19,515,.,.,8.56,0.00,0.00
15min,AgWx,beryljct,423,02FEB2020:11:15:00,55.4,13.93,56.3,56.5,56.4,56.6,56.3,24,25,23,0.366,19.8,21.0,18.8,17.16,14.5,184,7.8,18.5,0.00395,0.00564,32.8,34.4,19,538,.,.,8.56,0.00,0.00
15min,AgWx,beryljct,423,02FEB2020:11:30:00,56.5,13.93,56.3,56.5,56.6,57.2,56.3,24,25,23,0.366,20.3,21.3,19.2,14.07,14.7,190,9.4,19.1,0.00407,0.00578,32.8,34.4,19,565,.,.,8.56,0.00,0.00
15min,AgWx,beryljct,423,02FEB2020:11:45:00,57.2,13.89,56.5,56.7,56.7,57.0,56.5,24,25,24,0.373,20.6,21.7,19.9,19.16,15.5,182,10,23.8,0.00418,0.00594,32.8,34.4,19,587,.,.,8.55,0.00,0.00
15min,AgWx,beryljct,423,02FEB2020:12:00:00,57.8,13.9,57.7,57.3,57.0,57.8,56.6,24,25,23,0.369,20.8,22.3,19.7,14.14,15.6,186,9.6,21.1,0.00427,0.00605,32.8,34.4,20,605,.,.,8.55,0.00,0.00
15min,AgWx,beryljct,423,02FEB2020:12:15:00,58.3,13.89,58.2,57.8,57.4,58.1,56.9,23,24,23,0.387,20.2,22.0,19.2,12.06,17.0,186,11,22.8,0.00441,0.00632,32.8,34.4,19,614,.,.,8.54,0.00,0.00
15min,AgWx,beryljct,423,02FEB2020:12:30:00,58.6,13.85,57.6,58.0,57.8,58.3,57.4,24,25,22,0.392,20.9,22.5,19.5,23.24,17.1,197,9.5,25.4,0.00447,0.00638,32.8,34.4,20,621,.,.,8.54,0.00,0.00
15min,AgWx,beryljct,423,02FEB2020:12:45:00,58.8,13.86,57.9,57.7,58.0,58.3,57.7,24,26,23,0.377,21.3,23.0,20.1,23.19,21.4,200,9.8,31.2,0.00470,0.00687,32.8,34.4,19,629,.,.,8.54,0.00,0.00
15min,AgWx,beryljct,423,02FEB2020:13:00:00,58.8,13.88,57.9,57.6,57.7,58.2,57.3,24,25,23,0.374,20.7,22.0,19.7,26.26,26.0,195,7.7,36.6,0.00485,0.00723,32.8,34.4,20,632,.,.,8.54,0.00,0.00
15min,AgWx,beryljct,423,02FEB2020:13:15:00,58.8,13.88,57.5,57.9,57.8,58.1,57.5,24,24,23,0.389,20.8,21.6,19.9,28.61,26.4,193,8.2,32.7,0.00488,0.00728,32.8,34.4,19,639,.,.,8.54,0.00,0.00
15min,AgWx,beryljct,423,02FEB2020:13:30:00,58.9,13.86,57.7,57.6,57.7,58.3,57.4,24,25,24,0.400,21.7,22.4,20.8,25.93,27.2,192,7.7,33.1,0.00481,0.00721,32.8,34.4,20,620,.,.,8.54,0.00,0.00
15min,AgWx,beryljct,423,02FEB2020:13:45:00,58.9,13.89,58.3,57.6,57.5,58.0,57.1,25,25,24,0.400,21.6,22.7,20.9,23.11,29.6,187,7.2,36.2,0.00479,0.00727,32.8,34.4,19,603,.,.,8.53,0.00,0.00
15min,AgWx,beryljct,423,02FEB2020:14:00:00,59.0,13.98,57.2,57.3,57.5,58.1,57.2,25,26,25,0.402,22.1,23.1,21.6,30.98,26.6,184,8.3,33.3,0.00466,0.00700,32.8,34.3,19,594,.,.,8.53,0.00,0.00
15min,AgWx,beryljct,423,02FEB2020:14:15:00,59.2,13.84,57.6,57.7,57.6,57.9,57.1,26,26,25,0.408,22.6,23.4,21.8,30.38,24.9,184,11,32.8,0.00454,0.00680,32.7,34.3,19,577,.,.,8.53,0.00,0.00
15min,AgWx,beryljct,423,02FEB2020:14:30:00,59.3,13.84,57.5,57.6,57.7,58.3,57.4,26,27,25,0.426,23.0,23.8,22.2,27.56,25.3,190,11,32.7,0.00442,0.00668,32.8,34.3,19,539,.,.,8.53,0.00,0.00
15min,AgWx,beryljct,423,02FEB2020:14:45:00,59.3,13.86,58.3,57.6,57.4,57.7,57.1,26,27,26,0.430,23.1,23.9,22.4,19.88,27.2,187,9.4,36.6,0.00440,0.00671,32.8,34.3,19,532,.,.,8.53,0.00,0.00
15min,AgWx,beryljct,423,02FEB2020:15:00:00,59.5,13.84,58.1,58.5,58.1,58.5,57.6,26,27,26,0.435,23.6,24.2,23.1,23.15,23.0,185,9.7,31.4,0.00412,0.00628,32.9,34.3,20,476,.,.,8.53,0.00,0.00
15min,AgWx,beryljct,423,02FEB2020:15:15:00,59.3,13.85,57.3,57.4,57.4,58.3,57.1,27,27,26,0.433,23.5,24.0,23.1,30.6,26.7,188,11,36.4,0.00391,0.00616,33.0,34.3,20,396,.,.,8.53,0.01,0.00
15min,AgWx,beryljct,423,02FEB2020:15:30:00,59.3,13.85,57.8,57.8,57.7,57.9,57.3,27,27,26,0.429,23.6,24.1,23.1,34.4,27.5,183,10,35.9,0.00410,0.00642,33.2,34.3,19,434,.,.,8.53,0.00,0.00
15min,AgWx,beryljct,423,02FEB2020:15:45:00,59.3,13.83,57.1,57.2,57.5,57.8,57.2,27,27,26,0.431,23.4,23.9,23.0,29.46,30.1,187,8.1,37.0,0.00407,0.00647,33.4,34.3,20,399,.,.,8.54,0.00,0.00
15min,AgWx,beryljct,423,02FEB2020:16:00:00,59.3,13.84,57.9,57.5,57.3,57.6,57.1,27,28,27,0.429,23.8,24.2,23.3,26.31,26.8,194,8.9,34.9,0.00387,0.00611,33.5,34.3,19,389,.,.,8.53,0.00,0.00
15min,AgWx,beryljct,423,02FEB2020:16:15:00,59.3,13.85,56.9,57.0,57.3,57.8,57.0,27,28,27,0.431,24.0,24.5,23.2,26.33,23.9,193,8.2,30.4,0.00366,0.00578,33.7,34.3,19,366,.,.,8.53,0.00,0.00
15min,AgWx,beryljct,423,02FEB2020:16:30:00,59.1,13.85,55.5,55.6,56.4,57.1,55.6,28,29,27,0.432,23.7,24.1,23.3,22.47,25.5,190,8.3,32.6,0.00331,0.00542,34.0,34.3,19,270,.,.,8.54,0.01,0.00
15min,AgWx,beryljct,423,02FEB2020:16:45:00,58.3,13.9,55.6,55.6,55.6,55.7,55.5,29,29,28,0.430,23.8,24.3,23.4,27.38,21.2,194,7.1,32.3,0.00286,0.00470,34.1,34.3,19,236,.,.,8.54,0.00,0.00
15min,AgWx,beryljct,423,02FEB2020:17:00:00,57.4,13.95,54.0,54.0,54.7,55.6,54.0,29,30,28,0.431,23.3,24.0,22.8,19.4,23.0,194,7.9,33.8,0.00258,0.00444,34.4,34.3,20,143,.,.,8.54,0.00,0.00
15min,AgWx,beryljct,423,02FEB2020:17:15:00,56.4,13.29,52.9,53.3,53.8,54.2,53.3,30,31,30,0.428,23.3,23.6,23.0,18.04,22.4,195,7.8,28.6,0.00100,0.00112,34.5,34.3,19,109,.,.,8.54,0.00,0.00
15min,AgWx,beryljct,423,02FEB2020:17:30:00,55.0,13.97,52.4,52.3,52.7,53.4,52.3,32,33,31,0.440,23.6,24.0,23.4,16.13,18.4,195,7.2,23.2,0.00087,0.00099,34.7,34.4,20,79,.,.,8.54,0.00,0.00
15min,AgWx,beryljct,423,02FEB2020:17:45:00,54.0,13.22,51.8,51.5,51.9,52.4,51.4,33,34,32,0.442,23.9,24.2,23.6,18.61,16.6,190,7.6,23.7,0.00078,0.00090,34.9,34.4,19,52,.,.,8.54,0.00,0.00
15min,AgWx,beryljct,423,02FEB2020:18:00:00,52.9,13.14,50.7,51.0,51.1,51.6,50.9,35,35,34,0.444,24.3,24.5,24.1,17.54,19.1,184,9.6,27.1,0.00075,0.00086,35.0,34.4,19,13,.,.,8.54,0.00,0.00
15min,AgWx,beryljct,423,02FEB2020:18:15:00,52.0,13.1,50.4,50.4,50.8,51.1,50.4,35,36,35,0.449,24.3,24.5,24.2,23.39,23.8,186,7.1,31.5,0.00079,0.00088,35.1,34.4,19,5,.,.,8.54,0.00,0.00
15min,AgWx,beryljct,423,02FEB2020:18:30:00,51.3,13.08,50.6,50.3,50.4,50.6,50.0,36,37,36,0.454,24.7,24.9,24.5,25.89,23.8,189,7.1,30.3,0.00076,0.00085,35.2,34.5,20,0,.,.,8.55,0.00,0.00
15min,AgWx,beryljct,423,02FEB2020:18:45:00,50.7,13.06,50.2,50.2,50.1,50.3,49.8,37,38,37,0.456,24.9,25.1,24.8,23.54,24.5,189,7.5,32.2,0.00075,0.00084,35.3,34.5,20,0,.,.,8.54,0.00,0.00
15min,AgWx,beryljct,423,02FEB2020:19:00:00,50.3,13.04,50.2,50.1,50.0,50.2,49.8,37,38,36,0.445,24.7,25.0,24.3,24.62,23.8,190,7.7,31.5,0.00074,0.00083,35.4,34.5,20,0,.,.,8.55,0.01,0.00
15min,AgWx,beryljct,423,02FEB2020:19:15:00,49.9,13.03,49.9,49.8,49.7,50.1,49.4,36,37,36,0.442,24.2,24.3,24.1,23.08,20.8,193,7.6,28.2,0.00071,0.00080,35.4,34.6,20,0,.,.,8.55,0.00,0.00
15min,AgWx,beryljct,423,02FEB2020:19:30:00,49.7,13.02,49.8,49.3,49.6,49.8,49.2,37,37,36,0.442,24.1,24.4,24.0,29.11,23.6,189,6.5,29.8,0.00073,0.00082,35.4,34.6,20,0,.,.,8.55,0.00,0.00
15min,AgWx,beryljct,423,02FEB2020:19:45:00,49.5,13.01,49.7,49.7,49.4,49.8,49.2,36,37,35,0.427,23.8,24.2,23.2,19.69,24.2,189,8.1,33.8,0.00074,0.00083,35.5,34.7,19,0,.,.,8.55,0.00,0.00
15min,AgWx,beryljct,423,02FEB2020:20:00:00,49.3,13,50.1,49.6,49.5,49.7,49.3,36,36,35,0.426,23.4,23.6,23.2,29.07,23.6,190,7.8,30.2,0.00074,0.00083,35.5,34.7,19,0,.,.,8.55,0.00,0.00
15min,AgWx,beryljct,423,02FEB2020:20:15:00,49.2,12.99,49.2,49.6,49.7,50.2,49.4,34,35,34,0.411,22.8,23.2,22.4,16.13,22.9,187,7.8,32.8,0.00076,0.00085,35.5,34.7,19,0,.,.,8.55,0.00,0.00
15min,AgWx,beryljct,423,02FEB2020:20:30:00,49.0,12.98,49.5,49.5,49.3,49.7,48.7,34,35,33,0.398,22.1,22.4,21.6,14.4,16.9,191,8.2,24.1,0.00068,0.00078,35.6,34.8,20,0,.,.,8.55,0.00,0.00
15min,AgWx,beryljct,423,02FEB2020:20:45:00,48.9,12.97,50.1,50.0,49.7,50.2,49.3,32,33,31,0.386,21.3,21.8,20.8,17.3,15.7,200,9.7,22.0,0.00068,0.00079,35.6,34.8,20,0,.,.,8.55,0.00,0.00
15min,AgWx,beryljct,423,02FEB2020:21:00:00,49.1,12.97,51.2,51.4,50.6,51.4,49.8,31,32,30,0.389,20.8,21.2,20.5,29.77,23.3,196,9.9,38.0,0.00083,0.00093,35.6,34.8,20,0,.,.,8.55,0.00,0.00
15min,AgWx,beryljct,423,02FEB2020:21:15:00,49.6,12.96,50.9,50.6,50.9,51.5,50.5,31,32,30,0.400,21.5,21.8,21.1,24.68,26.5,193,9.3,37.8,0.00087,0.00096,35.6,34.9,19,0,.,.,8.55,0.00,0.00
15min,AgWx,beryljct,423,02FEB2020:21:30:00,49.9,12.95,50.9,50.7,50.8,51.1,50.6,32,33,31,0.410,22.0,22.4,21.7,32.03,28.2,200,9.2,39.0,0.00087,0.00096,35.6,34.9,20,0,.,.,8.55,0.01,0.00
15min,AgWx,beryljct,423,02FEB2020:21:45:00,50.0,12.95,50.3,50.4,50.5,50.7,50.2,33,34,33,0.417,22.6,22.9,22.4,25.34,28.6,201,8.0,44.3,0.00085,0.00093,35.6,34.9,20,0,.,.,8.55,0.00,0.00
15min,AgWx,beryljct,423,02FEB2020:22:00:00,50.0,12.94,50.4,50.2,50.2,50.5,50.0,34,35,34,0.428,23.1,23.4,22.7,36.94,28.2,202,8.6,45.7,0.00082,0.00091,35.6,35.0,20,0,.,.,8.57,0.01,0.00
15min,AgWx,beryljct,423,02FEB2020:22:15:00,49.8,12.93,50.0,49.9,50.0,50.2,49.8,35,35,35,0.432,23.5,23.7,23.3,28.54,29.8,201,9.4,38.2,0.00081,0.00089,35.6,35.0,19,0,.,.,8.56,0.00,0.00
15min,AgWx,beryljct,423,02FEB2020:22:30:00,49.7,12.93,50.0,49.8,49.7,50.0,49.5,36,37,35,0.444,23.9,24.3,23.6,40.77,31.1,202,10,40.9,0.00080,0.00088,35.6,35.0,20,0,.,.,8.57,0.02,0.00
15min,AgWx,beryljct,423,02FEB2020:22:45:00,49.6,12.92,49.0,49.0,49.4,49.9,49.0,37,38,36,0.445,24.3,24.5,24.1,23.3,28.7,202,8.4,42.0,0.00077,0.00085,35.6,35.1,20,0,.,.,8.55,0.00,0.00
15min,AgWx,beryljct,423,02FEB2020:23:00:00,49.2,12.92,48.4,48.7,48.9,49.1,48.6,38,39,38,0.451,24.5,24.7,24.3,22.54,27.0,204,7.6,36.8,0.00073,0.00081,35.6,35.1,19,0,.,.,8.56,0.01,0.00
15min,AgWx,beryljct,423,02FEB2020:23:15:00,49.0,12.9,48.8,48.8,48.8,49.0,48.6,39,39,38,0.453,24.7,24.8,24.5,33.54,30.7,205,10,38.4,0.00074,0.00081,35.6,35.1,20,0,.,.,8.57,0.01,0.00
15min,AgWx,beryljct,423,02FEB2020:23:30:00,48.8,12.9,48.3,48.3,48.6,48.9,48.3,39,40,38,0.457,24.9,25.1,24.7,24.4,31.8,205,11,42.0,0.00074,0.00081,35.6,35.1,20,0,.,.,8.56,0.00,0.00
15min,AgWx,beryljct,423,02FEB2020:23:45:00,48.6,12.91,48.0,47.8,48.0,48.4,47.7,40,41,40,0.457,25.0,25.2,24.8,28.61,28.8,212,9.6,41.9,0.00069,0.00076,35.6,35.2,20,0,.,.,8.55,0.00,0.00
15min,AgWx,bigpiney,439,02FEB2020:00:00:00,6.6,12.61,8.4,6.7,5.5,7.7,3.1,87,91,83,0.185,2.5,5.5,-1.0,0.373,0.7,252,13,1.7,-0.00009,-0.00013,29.0,30.2,10,0,0,0.0,5.72,0.00,0.00
15min,AgWx,bigpiney,439,02FEB2020:00:15:00,6.1,12.61,7.8,8.8,7.9,9.7,3.9,89,92,83,0.203,5.3,7.5,-0.1,0.132,0.7,242,19,1.7,-0.00010,-0.00014,29.0,30.2,10,0,0,0.0,5.72,0.00,0.00
15min,AgWx,bigpiney,439,02FEB2020:00:30:00,5.7,12.6,1.1,1.1,3.5,8.5,1.1,84,89,82,0.133,-0.3,6.0,-2.8,2.433,2.5,217,13,3.9,-0.00005,-0.00005,29.0,30.2,10,0,0,0.0,5.72,0.00,0.00
15min,AgWx,bigpiney,439,02FEB2020:00:45:00,5.3,12.58,2.6,4.4,2.5,7.7,-0.5,87,94,82,0.160,-0.6,6.3,-4.6,4.341,2.6,232,15,4.5,-0.00004,-0.00005,29.0,30.2,10,0,1,0.0,5.72,0.00,0.00
15min,AgWx,bigpiney,439,02FEB2020:01:00:00,5.0,12.57,5.4,4.2,6.2,10.5,3.2,88,95,83,0.157,3.2,9.4,-0.6,5.656,4.5,227,12,6.1,-0.00003,-0.00003,29.0,30.2,10,0,1,0.0,5.72,0.00,0.00
15min,AgWx,bigpiney,439,02FEB2020:01:15:00,5.0,12.56,2.6,2.6,3.4,7.5,1.5,85,92,83,0.146,-0.0,5.6,-2.5,2.148,3.5,232,20,5.5,-0.00003,-0.00004,29.0,30.2,10,0,1,0.0,5.72,0.00,0.00
15min,AgWx,bigpiney,439,02FEB2020:01:30:00,4.9,12.56,2.5,2.1,1.8,2.8,1.1,85,87,83,0.143,-1.6,-0.1,-2.6,0.767,2.1,262,34,4.2,-0.00005,-0.00006,28.9,30.1,10,0,1,0.0,5.72,0.00,0.00
15min,AgWx,bigpiney,439,02FEB2020:01:45:00,4.7,12.55,3.6,1.9,2.0,2.7,0.9,86,87,84,0.141,-1.3,-0.3,-2.8,0.417,0.7,354,32,2.7,-0.00008,-0.00011,28.9,30.2,10,0,1,0.0,5.72,0.00,0.00
15min,AgWx,bigpiney,439,02FEB2020:02:00:00,4.5,12.54,2.3,2.2,2.7,3.4,2.1,86,87,85,0.143,-0.5,0.3,-1.3,1.469,1.0,340,19,2.6,-0.00007,-0.00010,28.9,30.1,10,0,1,0.0,5.72,0.00,0.00
15min,AgWx,bigpiney,439,02FEB2020:02:15:00,4.4,12.53,3.0,2.6,2.0,2.7,1.4,86,87,85,0.147,-1.3,-0.4,-2.2,1.162,1.4,295,43,5.0,-0.00006,-0.00008,28.9,30.2,10,0,1,0.0,5.72,0.00,0.00
15min,AgWx,bigpiney,439,02FEB2020:02:30:00,4.2,12.52,2.4,1.6,2.0,2.5,1.6,85,86,85,0.139,-1.4,-0.7,-2.0,5.174,1.4,314,48,5.2,-0.00006,-0.00008,28.9,30.2,10,0,1,0.0,5.72,0.00,0.00
15min,AgWx,bigpiney,439,02FEB2020:02:45:00,4.1,12.51,1.6,1.6,1.5,2.4,0.3,85,87,83,0.139,-1.9,-0.6,-3.5,2.477,2.3,352,63,7.4,-0.00004,-0.00005,28.9,30.2,10,0,1,0.0,5.72,0.00,0.00
15min,AgWx,bigpiney,439,02FEB2020:03:00:00,3.8,12.5,0.2,0.9,1.4,2.2,0.5,85,87,83,0.134,-2.0,-0.8,-3.3,2.105,2.2,237,66,6.9,-0.00005,-0.00006,28.9,30.1,10,0,1,0.0,5.72,0.00,0.00
15min,AgWx,bigpiney,439,02FEB2020:03:15:00,3.7,12.49,2.5,1.6,1.8,3.3,0.6,86,89,84,0.140,-1.5,0.7,-3.2,0,2.5,295,76,6.7,-0.00004,-0.00005,28.9,30.2,10,0,1,0.0,5.72,0.00,0.00
15min,AgWx,bigpiney,439,02FEB2020:03:30:00,3.7,12.48,2.4,3.4,2.4,3.6,1.7,86,88,85,0.155,-0.7,0.9,-1.9,5.02,1.8,304,51,9.2,-0.00006,-0.00007,28.9,30.2,10,0,1,0.0,5.72,0.00,0.00
15min,AgWx,bigpiney,439,02FEB2020:03:45:00,3.7,12.47,4.8,3.8,2.2,3.8,0.8,86,88,83,0.159,-1.1,1.1,-3.2,1.688,1.8,173,80,5.9,-0.00005,-0.00007,28.9,30.1,10,0,1,0.0,5.72,0.00,0.00
15min,AgWx,bigpiney,439,02FEB2020:04:00:00,3.8,12.47,1.6,1.0,2.3,4.2,0.9,85,88,83,0.134,-1.2,1.4,-3.0,1.381,1.4,107,75,5.5,-0.00006,-0.00008,28.9,30.1,10,0,1,0.0,5.72,0.00,0.00
15min,AgWx,bigpiney,439,02FEB2020:04:15:00,4.0,12.46,1.6,1.1,1.0,1.5,0.6,85,86,84,0.136,-2.4,-1.8,-3.1,0.855,1.6,72,70,6.7,-0.00006,-0.00007,28.9,30.1,10,0,1,0.0,5.72,0.00,0.00
15min,AgWx,bigpiney,439,02FEB2020:04:30:00,3.9,12.45,0.2,-0.4,-0.1,1.1,-0.5,84,85,84,0.125,-3.7,-2.3,-4.2,1.798,2.4,341,70,4.9,-0.00004,-0.00005,28.8,30.1,10,0,1,0.0,5.72,0.00,0.00
15min,AgWx,bigpiney,439,02FEB2020:04:45:00,3.9,12.44,2.0,1.4,0.9,1.8,-0.4,86,87,84,0.138,-2.4,-1.3,-4.0,1.381,1.7,171,91,4.3,-0.00006,-0.00007,28.8,30.2,10,0,1,0.0,5.72,0.00,0.00
15min,AgWx,bigpiney,439,02FEB2020:05:00:00,4.0,12.44,2.9,2.4,2.1,2.8,1.3,86,87,85,0.146,-1.1,-0.3,-2.1,4.056,2.3,246,51,5.7,-0.00005,-0.00006,28.8,30.1,10,0,1,0.0,5.72,0.00,0.00
15min,AgWx,bigpiney,439,02FEB2020:05:15:00,4.2,12.42,1.3,1.2,2.8,4.1,1.2,86,88,83,0.134,-0.4,1.3,-2.7,2.587,1.8,284,66,4.3,-0.00006,-0.00007,28.8,30.0,10,0,1,0.0,5.72,0.00,0.00
15min,AgWx,bigpiney,439,02FEB2020:05:30:00,4.2,12.42,0.8,0.6,1.2,2.1,0.5,85,86,83,0.131,-2.4,-1.1,-3.2,2.85,1.6,57,84,4.3,-0.00006,-0.00007,28.8,30.2,10,0,1,0.0,5.72,0.00,0.00
15min,AgWx,bigpiney,439,02FEB2020:05:45:00,4.0,12.4,0.4,-0.6,-0.2,0.5,-0.7,84,85,83,0.124,-3.9,-3.1,-4.5,3.639,2.1,344,79,4.9,-0.00004,-0.00005,28.8,30.1,10,0,1,0.0,5.72,0.00,0.00
15min,AgWx,bigpiney,439,02FEB2020:06:00:00,3.7,12.41,3.7,2.5,1.4,2.5,-0.5,86,88,84,0.148,-1.8,-0.5,-4.2,0,1.7,268,42,7.9,-0.00005,-0.00007,28.8,30.2,10,0,1,0.0,5.72,0.00,0.00
15min,AgWx,bigpiney,439,02FEB2020:06:15:00,3.6,12.4,1.8,1.9,2.4,3.0,1.6,86,87,84,0.140,-0.9,0.0,-2.1,4.165,1.9,304,79,5.9,-0.00005,-0.00007,28.7,30.1,10,0,1,0.0,5.72,0.00,0.00
15min,AgWx,bigpiney,439,02FEB2020:06:30:00,3.7,12.4,-0.8,-1.1,-0.1,1.8,-1.1,83,84,82,0.120,-4.0,-1.9,-5.0,2.061,2.6,348,34,6.1,-0.00004,-0.00004,28.7,30.1,10,0,1,0.0,5.72,0.00,0.00
15min,AgWx,bigpiney,439,02FEB2020:06:45:00,3.5,12.4,0.6,-0.2,-0.8,-0.1,-1.4,84,86,83,0.128,-4.4,-3.4,-5.2,0.044,1.3,320,34,3.3,-0.00006,-0.00007,28.7,30.1,10,0,1,0.0,5.72,0.00,0.00
15min,AgWx,bigpiney,439,02FEB2020:07:00:00,3.3,12.39,0.5,-0.1,-0.4,0.2,-0.8,85,85,84,0.129,-3.9,-3.2,-4.5,3.157,2.5,345,16,4.7,-0.00004,-0.00005,28.7,30.1,10,0,1,0.0,5.72,0.00,0.00
15min,AgWx,bigpiney,439,02FEB2020:07:15:00,3.1,12.39,1.1,0.6,-0.1,0.7,-0.5,85,86,84,0.133,-3.6,-2.6,-4.2,0,0.7,250,55,3.0,-0.00007,-0.00010,28.7,30.2,10,0,1,0.0,5.72,0.00,0.00
15min,AgWx,bigpiney,439,02FEB2020:07:30:00,3.0,12.39,0.8,0.3,0.2,0.6,-0.4,85,86,84,0.130,-3.3,-2.6,-4.1,0.132,0.8,210,46,2.6,-0.00007,-0.00010,28.7,30.1,10,1,1,0.0,5.72,0.00,0.00
15min,AgWx,bigpiney,439,02FEB2020:07:45:00,2.9,12.47,-0.5,-1.1,-0.5,0.3,-1.1,84,85,83,0.120,-4.2,-3.2,-4.9,4.187,1.4,221,34,4.5,-0.00005,-0.00006,28.7,30.1,10,10,1,0.0,5.72,0.00,0.00
15min,AgWx,bigpiney,439,02FEB2020:08:00:00,2.7,12.78,3.2,1.4,-0.1,1.4,-1.1,85,87,84,0.141,-3.6,-1.5,-4.9,0,2.4,217,28,9.5,-0.00008,-0.00007,28.7,30.1,10,31,1,0.0,5.72,0.00,0.00
15min,AgWx,bigpiney,439,02FEB2020:08:15:00,2.7,15.03,0.8,0.4,0.8,2.0,0.1,85,88,83,0.130,-2.7,-0.8,-3.8,2.324,3.2,236,21,6.3,-0.00003,-0.00001,28.6,30.1,10,58,1,0.0,5.72,0.00,0.00
15min,AgWx,bigpiney,439,02FEB2020:08:30:00,3.1,14.98,2.8,1.9,1.3,2.8,0.3,85,87,84,0.141,-2.1,-0.2,-3.4,1.403,1.9,279,44,3.9,0.00004,0.00005,28.6,30.1,10,103,1,0.0,5.72,0.00,0.00